Location: Most
(50.5133°N, 13.6207°E)
Time: 18:42:31
(UTC+02:00)

ISS - Pass Details

Date: 16 May 2019
Orbit: 407 x 410 km, 51.6° (Epoch: 23 May)

Event Time Altitude Azimuth Distance (km) Brightness Sun altitude
Exits shadow 03:01:56 - 282° (WNW) 1,780 -0.8 -15.6°
Reaches altitude 10° 03:02:41 10° 282° (WNW) 1,478 -1.2 -15.6°
Maximum altitude 03:06:00 81° 10° (N) 421 -3.8 -15.3°
Drops below altitude 10° 03:09:19 10° 98° (E) 1,477 -0.7 -15.0°
Sets 03:11:24 0° 100° (E) 2,337 0.3 -14.9°
